Location: Breitenfeld
(48.7500°N, 15.3833°E)
Time: 23:19:32
(UTC+00:00)

Daily predictions for brighter satellites

Satellite Brightness Start Highest point End
(mag) Time Altitude Azimuth Time Altitude Azimuth Time Altitude Azimuth
USA 215 3.3 16:52:41 10° ENE 16:59:15 74° SE 17:05:47 10° SW
Cosmos 1850 Rocket 4.1 16:56:53 10° S 17:02:01 61° ESE 17:07:14 10° NNE
Aureole 1 4.5 16:59:06 10° SSW 17:02:11 81° WNW 17:05:51 10° NNE
Cosmos 2279 Rocket 4.0 16:56:32 10° N 17:02:49 80° E 17:09:06 10° SSE
Cosmos 2369 3.7 16:58:39 10° SSW 17:04:21 79° ESE 17:10:05 10° NNE
SL-08 RB Rocket 4.4 17:00:09 10° S 17:04:42 61° W 17:09:20 10° NNW
Cosmos 1733 Rocket 3.1 17:00:52 10° S 17:05:16 65° E 17:09:41 10° NNE
BREEZE-M DEB (TANK) 4.2 17:01:43 10° SW 17:05:57 54° SE 17:21:35 10° ENE
Cosmos 1844 Rocket 3.9 17:01:38 10° N 17:06:16 25° NE 17:10:53 10° E
COBE Rocket 4.1 17:03:49 10° SE 17:08:27 48° ENE 17:12:59 10° N
Cosmos 2221 Rocket 3.6 17:04:58 10° N 17:09:32 74° E 17:14:04 10° SSE
Cosmos 2278 4.0 17:04:48 10° S 17:10:13 47° ESE 17:15:39 10° NE
SL-16 R/B 3.2 17:06:51 10° SSE 17:11:20 25° ESE 17:15:50 10° NE
Cosmos 1570 Rocket 4.5 17:08:29 10° NNW 17:13:30 42° ENE 17:18:26 10° SE
PAYLOAD B 4.2 17:08:14 10° SSE 17:13:43 78° ENE 17:19:14 10° NNW
CZ-4B DEB 4.4 17:09:41 10° SSE 17:15:08 81° WSW 17:20:40 10° NNW
SKYMED 3 4.4 17:11:34 10° NNE 17:15:42 68° ESE 17:19:46 10° S
BREEZE-M DEB (TANK) 2.8 17:17:30 10° W 17:19:34 42° SSW 17:22:38 10° SE
COSMO-SKYMED 1 2.7 17:20:51 10° NNE 17:25:13 81° WNW 17:29:34 10° SSW
Cosmos 2263 Rocket 2.4 17:20:15 10° NNW 17:25:58 77° WSW 17:31:39 10° SSE
Meteor 1-24 Rocket 4.2 17:22:41 10° N 17:27:32 34° ENE 17:32:25 10° SE
SJ-6B 4.2 17:26:35 14° E 17:28:21 19° ENE 17:31:03 10° NNE
Cosmos 1437 Rocket 3.3 17:27:08 10° SSE 17:30:28 31° E 17:33:49 10° NNE
Spot 1 3.9 17:26:32 10° NNE 17:30:44 69° ESE 17:34:47 10° S
ASTEX 1 3.5 17:26:16 10° N 17:31:17 84° W 17:36:17 10° S
HJ-1C 3.2 17:29:13 10° SSE 17:32:16 55° ENE 17:35:20 10° N
Cosmos 1741 Rocket 4.2 17:28:13 10° SSW 17:33:30 80° WNW 17:38:48 10° NNE
Feng Yun 1-1 Rocket 4.3 17:29:53 10° SE 17:35:10 54° ENE 17:40:26 10° N
USA 267 3.6 17:28:46 10° SE 17:35:18 69° SW 17:41:51 10° WNW
IRIDIUM 104 4.3 17:30:31 10° S 17:35:40 64° E 17:40:51 10° N
Cosmos 1814 Rocket 4.0 17:32:08 10° NNW 17:37:26 87° ENE 17:42:36 10° SSE
SL-4 R/B 2.6 17:34:04 10° WNW 17:38:25 61° SSW 17:42:27 13° SE
Cosmos 1844 4.4 17:35:48 10° NNW 17:40:51 33° NE 17:44:18 18° ESE
Cosmos 2084 Rocket 3.6 17:37:14 10° NW 17:40:57 47° NE 17:43:23 20° ESE
Cosmos 1805 4.2 17:38:13 10° SSW 17:42:00 51° WNW 17:45:49 10° N
Cosmos 2208 Rocket 4.2 17:36:50 10° NNW 17:42:10 56° ENE 17:47:29 10° SE
Cosmos 2227 4.2 17:37:38 10° NNW 17:43:18 90° ENE 17:48:56 10° SSE
Cosmos 1242 Rocket 4.3 17:40:05 10° SW 17:43:22 34° WNW 17:46:39 10° N
IRIDIUM 114 4.2 17:39:35 10° S 17:44:48 77° E 17:50:02 10° N
Okean-O 3.6 17:42:55 18° ESE 17:45:08 27° ENE 17:48:53 10° N
Cosmos 489 Rocket 4.4 17:40:27 10° SSW 17:46:46 75° ESE 17:53:06 10° NNE
CZ-4 R/B 1.4 17:43:41 10° SSE 17:47:50 70° ENE 17:52:00 10° N
ISS -1.4 17:45:33 10° W 17:48:03 19° SW 17:50:34 10° S
Cosmos 1697 Rocket 4.4 17:44:02 10° WSW 17:49:04 33° NW 17:54:08 10° NNE
IGS 5A 4.3 17:48:12 21° ESE 17:50:04 30° ENE 17:53:42 10° N
Meteor 1-12 Rocket 4.3 17:45:05 10° S 17:51:04 74° E 17:57:05 10° NNE
BREEZE M DEB (TANK) 3.5 17:45:57 10° SW 17:51:46 27° SSE 17:53:02 22° SE
Cosmos 1908 Rocket 3.4 17:49:17 10° S 17:53:35 73° E 17:57:55 10° NNE
OBJECT-B 1.4 17:54:14 26° NE 17:54:14 26° NE 17:55:56 10° N
IRIDIUM 103 4.3 17:48:43 10° S 17:53:56 90° W 17:59:12 10° N
Meteor 2-21 4.5 17:48:10 10° S 17:54:12 83° W 18:00:18 10° N
Cosmos 2360 Rocket 3.0 17:51:22 10° SSE 17:55:56 26° ESE 18:00:32 10° NE
USA 81 4.3 17:52:57 10° N 17:58:02 45° ENE 18:02:39 12° SSE
Cosmos 1782 Rocket 3.7 17:57:38 10° SSE 18:01:48 48° E 18:06:01 10° NNE
Cosmos 1766 3.7 17:57:56 10° SSW 18:01:49 64° WNW 18:05:46 10° N
Cosmos 1025 Rocket 3.2 18:01:39 10° N 18:05:51 48° ENE 18:07:57 26° SE
YAOGAN 1 3.2 18:01:55 10° S 18:06:09 56° W 18:10:25 10° NNW
Cosmos 2026 Rocket 4.0 18:01:58 10° SSE 18:07:49 54° E 18:13:43 10° NNE
Cosmos 968 Rocket 3.4 18:03:28 10° SSW 18:08:42 78° ESE 18:13:57 10° NNE
ATLAS 2AS CENTAUR R/B 4.4 18:02:48 10° NW 18:08:43 25° N 18:14:11 11° NE
Okean O Rocket 2.1 18:05:39 10° S 18:09:58 62° WSW 18:14:21 10° NNW
Lacrosse 4 Rocket 1.7 18:09:45 10° S 18:13:35 40° ESE 18:13:56 39° E
Meteor 2-5 Rocket 3.6 18:09:58 10° NNW 18:15:33 89° W 18:21:06 10° S
Nadezhda 4 Rocket 4.3 18:09:27 10° SSW 18:15:46 71° W 18:22:05 10° N
CSL-04 Rocket 3.6 18:13:27 20° SE 18:17:07 62° ENE 18:22:29 10° N
Meteor 1-15 Rocket 4.2 18:11:56 10° SSW 18:17:31 83° WNW 18:23:07 10° N
Cosmos 1553 Rocket 4.3 18:12:32 10° N 18:18:40 47° ENE 18:21:53 27° SE
USA 186 1.7 18:22:41 67° SE 18:23:01 75° ENE 18:26:24 10° N
Cosmos 1726 4.4 18:21:02 10° SW 18:24:09 26° WNW 18:27:18 10° NNW
Cosmos 2322 Rocket 2.1 18:19:01 10° SSW 18:24:38 63° ESE 18:30:17 10° NNE
Cosmos 2237 4.1 18:19:36 10° SSW 18:25:13 65° ESE 18:30:53 10° NNE
Landsat 7 4.0 18:25:23 42° ESE 18:26:28 50° ENE 18:31:02 10° N
SPOT 1/Viking Rocket 4.3 18:27:16 32° ENE 18:27:30 32° ENE 18:32:02 10° N
Cosmos 1470 2.8 18:24:46 10° SSW 18:28:37 77° W 18:32:28 10° N
deb Chang Zheng 4 4.2 18:29:32 36° NE 18:29:32 36° NE 18:32:52 10° N
Cosmos 1975 Rocket 2.9 18:26:29 10° N 18:30:56 90° SE 18:33:09 29° S
Cosmos 1980 Rocket 4.0 18:26:15 10° WSW 18:31:12 31° NW 18:36:10 10° NNE
NOSS 3-3 (A) 4.2 18:27:15 10° S 18:32:22 39° ESE 18:32:26 39° ESE
NOSS 3-3 (C) 4.2 18:27:22 10° S 18:32:21 38° ESE 18:32:21 38° ESE
Ariane Rocket 4.3 18:36:14 25° NE 18:36:14 25° NE 18:39:45 10° N
CRYOSAT 2 4.3 18:34:18 16° S 18:38:11 90° SW 18:43:08 10° N
Cosmos 2292 Rocket 4.4 18:33:55 10° SSW 18:38:50 52° W 18:42:38 10° N
USA 215 3.8 18:36:54 16° NE 18:42:08 54° NNW 18:48:28 10° W
Aureole 1 Rocket 4.3 18:35:30 10° S 18:42:27 45° ESE 18:48:02 10° NE
IRS-1C Rocket 4.0 18:43:42 34° SSE 18:46:04 90° ENE 18:51:22 10° NNW
Cosmos 1844 Rocket 2.8 18:45:05 10° NNW 18:50:47 76° WSW 18:52:59 39° SSE
SL-16 R/B 2.6 18:49:23 10° SW 18:55:00 62° WNW 19:00:39 10° NNE
Landsat 5 3.8 18:50:42 10° N 18:55:11 70° WNW 18:59:36 10° SSW
Cosmos 1943 Rocket 4.3 18:54:41 10° N 18:56:52 12° NNE 18:57:29 12° NE
Cosmos 1092 Rocket 4.5 18:51:06 10° SSW 18:57:19 61° WNW 19:03:32 10° N
Resurs 01 Rocket 2.4 19:01:19 41° NNE 19:01:19 41° NNE 19:04:28 10° N
Terra 4.1 19:03:49 12° NNE 19:03:49 12° NNE 19:04:29 10° NNE
SJ-6B 3.8 19:02:07 39° WSW 19:02:38 41° W 19:06:16 10° NNW
H-2A R/B 3.6 19:07:12 34° N 19:07:12 34° N 19:09:28 10° NNW
Cosmos 2278 Rocket 3.4 19:01:16 10° NNW 19:05:41 27° NE 19:05:41 27° NE
Resurs 1-3 4.1 19:11:26 55° WSW 19:11:41 56° W 19:16:02 10° NNW
IRS-1A Rocket 4.2 19:15:25 69° ENE 19:15:25 69° ENE 19:21:06 10° NNW
SL-4 R/B 4.5 19:14:26 10° W 19:17:20 17° SW 19:17:51 16° SW
Cosmos 921 Rocket 4.4 19:12:54 10° NNW 19:15:35 33° N 19:15:35 33° N
Okean-O 3.9 19:20:29 33° SW 19:21:28 37° W 19:25:36 10° NNW
CZ-4 R/B 4.5 19:21:10 10° WSW 19:23:13 13° W 19:25:17 10° WNW
Cosmos 1486 Rocket 4.4 19:18:57 10° SW 19:24:13 64° WNW 19:29:33 10° NNE
Cosmos 1844 4.3 19:19:50 10° NW 19:25:10 49° WSW 19:26:13 43° SW
Cosmos 2266 Rocket 4.3 19:26:59 55° NE 19:26:59 55° NE 19:32:05 10° NNE
DNEPR-1 R/B 4.4 19:24:07 10° SW 19:28:54 61° NW 19:30:36 42° NNE
S3M 3.8 19:23:43 10° N 19:30:00 89° W 19:30:10 86° S
Cosmos 773 Rocket 4.3 19:26:20 10° NNW 19:31:00 67° NW 19:31:00 67° NW
Meteor 1-21 Rocket 4.3 19:26:36 10° NNW 19:31:34 72° NNW 19:31:34 72° NNW
Cosmos 2360 Rocket 2.7 19:33:59 10° SW 19:39:33 58° WNW 19:45:09 10° NNE
Lacrosse 4 Rocket 3.8 19:48:43 10° WSW 19:50:17 19° W 19:50:17 19° W
ATLAS 2AS CENTAUR R/B 3.6 19:55:01 10° NW 20:01:35 39° NNE 20:01:35 39° NNE
Cosmos 2322 Rocket 4.0 20:04:12 10° WSW 20:09:06 29° NW 20:14:02 10° NNE
NOSS 3-4 (A) 4.0 20:06:01 10° NW 20:12:04 70° WNW 20:12:04 70° WNW
NOSS 3-4 (C) 4.0 20:06:07 10° NW 20:12:10 70° WNW 20:12:10 70° WNW
USA 215 4.0 20:24:15 43° N 20:24:31 43° N 20:30:37 10° WNW
USA 281 3.9 20:27:40 49° NNW 20:27:40 49° NNW 20:32:21 10° NNW
Resurs 01 Rocket 4.5 20:38:53 14° WNW 20:38:53 14° WNW 20:39:59 10° NW
Terra 4.4 20:42:43 16° NNW 20:42:43 16° NNW 20:43:39 10° NNW
Cosmos 1943 Rocket 4.2 20:36:56 10° NNW 20:38:59 22° N 20:38:59 22° N
Cosmos 2278 Rocket 4.0 20:45:01 10° NNW 20:47:32 27° NW 20:47:32 27° NW
Cosmos 2369 Rocket 4.5 20:56:56 10° NNW 20:58:48 18° N 20:58:48 18° N
ATLAS 2AS CENTAUR R/B 4.4 21:46:10 10° NW 21:49:00 26° NW 21:49:00 26° NW
